STARLINK-2754, 48641

Orbit data source: Space-Track

STARLINK-2754, 48641 is a payload satellite owned by SpaceX/Seattle (US) in LEO that was launched on Wed, 26 May 2021 UTC via an FALCON 9 launch vehicle from the Air Force Eastern Test Range (AFETR). Payload-class satellites include a variety of spacecraft equipped with specific instruments for various scientific and technological missions. These include communications satellites like Starlink; space stations such as the ISS; scientific satellites like the Hubble; Earth observation satellites from companies like Planet Labs, Umbra, and HawkEye 360; GPS; miniature CubeSats for education and research; and military/defense satellites.

Loading next visibility...
Identifier
48641, 2021-044D
Orbit
LEO
Country
Flag of USUS
Related business
Manufacturer
SpaceX/Seattle
Mission
Operational Commercial Communications
Bus & Motor
STARLINK, Unknown motor
Mass
260 kg wet, ~248 kg dry
Launch date (UTC)
2021-05-26 (5 years ago)
Launch vehicle
FALCON 9
Launch site
Air Force Eastern Test Range (AFETR)
Object type
Payload
Rocket body
Debris
Shape & HBR
Box + 1 Pan, 10.1 m
Radar Cross Section
13.562 m², Large (>1 m²)

Expand to show TLE details & history
Last TLE update: 23 hours ago

TLE from 23 hours ago
0 STARLINK-2754
1 48641U 21044D   25348.72608131 -.00000856  00000-0 -38616-4 0  9993
2 48641  53.0538 143.0358 0001519  91.6689 268.4474 15.06390578250903
Epoch: 2025-12-14T17:25Z
TLE epoch observation values (Epoch: 2025-12-14T17:25:33.425Z)
Latitude
-0°
Longitude
158.01166°
Altitude
548.148 km
Speed
7.589 km/s
True Right ascension
09h 32m 08s
True Declination
0° 00' 00"
Sunlit
Object was in full shadow at epoch
Visualization orbit readout
Latitude
Unknown
Longitude
Unknown
Altitude
Unknown
Speed
Unknown
Apparent Right ascension
Unknown
Apparent Declination
Unknown
Sunlit
N/A
Visualization observer readout
Local Sidereal Time
15:08:17
Azimuth
Unknown
Elevation
Unknown
Doppler factor
Unknown
Orbital elements
Apogee altitude
548.563 km
Perigee altitude
546.459 km
Semi-major axis
6,925.648 km
Eccentricity
0.00015
Inclination
53.0538°
RAAN
143.0358°
Arg. of periapsis
91.6689°
True anomaly
268.43°
Mean anomaly
268.4474°
Eccentric anomaly
268.4387°
Mean motion
3.76576 °/min
Orbital period
95.6 mins
BSTAR
-0.000038616
Loading maneuver chart data...
Computing Atmospheric mass density...
Loading historical data...
Loading historical data...
Loading historical data...
Loading historical data...
Loading historical data...
Loading historical data...
Loading historical data...

Documentation

Showing up to 5 results
|